STARLINK-35651

Last updated on Wed Dec 10 2025 00:02:05 GMT+0000 (Coordinated Universal Time)

1 66386U 25257G 25343.12636695 .00079427 00000+0 19748-2 0 9994 2 66386 53.1600 281.5270 0001034 97.4058 262.7065 15.39623506 5814
UTC large
Height (km)
Speed (km/s)
/
Latitude / Longitude
Inclination (degrees)
Orbital Period (minutes)
Azimuth
Elevation
Range (km)
Doppler Factor

Next 0 passes for location: London (51.5072 / 0.1276)

Sorry there are no passes over London.